Weather History for North Las Vegas, NV

Change the Weather History Date:

Sunday, December 9, 2012

  Actual Average Record
Temperature  
Mean Temperature 53 °F -  
Max Temperature 62 °F 60 °F 74 °F (1957)
Min Temperature 43 °F 39 °F 8 °F (1956)
Degree Days  
Heating Degree Days 12    
Growing Degree Days 3 (Base 50)    
Moisture  
Dew Point 19 °F    
Average Humidity 26    
Maximum Humidity 35    
Minimum Humidity 19    
Precipitation  
Precipitation 0.00 in - - ()
Sea Level Pressure  
Sea Level Pressure 30.16 in    
Wind  
Wind Speed 14 mph (ENE)    
Max Wind Speed 25 mph    
Max Gust Speed 32 mph    
Visibility 10 miles    
Events      
Averages and records for this station are not official NWS values.
T = Trace of Precipitation, MM = Missing Value Source: NWS Daily Summary

Daily Weather History Graph

Daily Weather History Graph

Search for Another Location

Airport:

Trip Planner

Search our weather history database for the weather conditions in past years. The results will help you decide how hot, cold, wet, or windy it might be!

Date:

Astronomy

Dec. 09, 2012 Rise Set
Actual Time 6:40 AM PST 4:26 PM PST
Civil Twilight 6:12 AM PST 4:54 PM PST
Nautical Twilight 5:40 AM PST 5:26 PM PST
Astronomical Twilight 5:08 AM PST 5:57 PM PST
Moon 2:23 AM PST (12/9) 1:31 PM PST (12/9)
Length of Visible Light 10h 42m
Length of Day
9h 45m
Waning Crescent, 17% of the Moon is Illuminated
Dec 9
Waning Crescent
Dec 13
New
Dec 19
First Quarter
Dec 28
Full
Jan 4
Last Quarter

Hourly Weather History & Observations

Time (PST) Temp. Windchill Dew Point Humidity Pressure Visibility Wind Dir Wind Speed Gust Speed Precip Events Conditions
12:53 AM 55.0 °F - 19.0 °F 24% 29.96 in 10.0 mi NW 18.4 mph - N/A   Clear
1:53 AM 55.9 °F - 19.9 °F 25% 29.98 in 10.0 mi NNW 13.8 mph - N/A   Clear
2:53 AM 55.9 °F - 19.9 °F 25% 29.98 in 10.0 mi North 13.8 mph 23.0 mph N/A   Clear
3:53 AM 54.0 °F - 21.0 °F 28% 29.99 in 10.0 mi NNW 16.1 mph - N/A   Clear
4:53 AM 52.0 °F - 21.0 °F 30% 30.01 in 10.0 mi East 4.6 mph - N/A   Clear
5:53 AM 55.0 °F - 19.9 °F 25% 30.04 in 10.0 mi North 6.9 mph - N/A   Clear
6:53 AM 55.0 °F - 19.9 °F 25% 30.03 in 10.0 mi NNW 25.3 mph 32.2 mph N/A   Clear
7:53 AM 54.0 °F - 21.0 °F 28% 30.08 in 10.0 mi North 17.3 mph - N/A   Clear
8:36 AM 53.6 °F - 19.4 °F 26% 30.08 in 10.0 mi East 9.2 mph - N/A   Clear
8:53 AM 55.9 °F - 19.9 °F 25% 30.14 in 10.0 mi ENE 6.9 mph - N/A   Clear
9:53 AM 54.0 °F - 19.0 °F 25% 30.18 in 10.0 mi ESE 10.4 mph - N/A   Clear
10:53 AM 57.0 °F - 19.9 °F 24% 30.17 in 10.0 mi ESE 13.8 mph - N/A   Clear
11:53 AM 57.9 °F - 19.0 °F 22% 30.17 in 10.0 mi East 19.6 mph - N/A   Clear
12:53 PM 59.0 °F - 19.0 °F 21% 30.17 in 10.0 mi East 11.5 mph - N/A   Clear
1:53 PM 60.1 °F - 18.0 °F 20% 30.17 in 10.0 mi ESE 10.4 mph - N/A   Clear
2:53 PM 62.1 °F - 19.0 °F 19% 30.17 in 10.0 mi NNW 12.7 mph 18.4 mph N/A   Clear
3:53 PM 57.0 °F - 17.1 °F 21% 30.20 in 10.0 mi East 18.4 mph - N/A   Clear
4:53 PM 53.1 °F - 17.1 °F 24% 30.22 in 10.0 mi East 15.0 mph - N/A   Clear
5:53 PM 51.1 °F - 16.0 °F 25% 30.25 in 10.0 mi East 10.4 mph - N/A   Clear
6:53 PM 50.0 °F - 16.0 °F 26% 30.27 in 10.0 mi East 19.6 mph 25.3 mph N/A   Clear
7:53 PM 48.0 °F - 16.0 °F 28% 30.29 in 10.0 mi East 15.0 mph - N/A   Clear
8:53 PM 46.9 °F - 16.0 °F 29% 30.32 in 10.0 mi Calm Calm - N/A   Clear
9:53 PM 45.0 °F 41.8 °F 17.1 °F 33% 30.33 in 10.0 mi South 5.8 mph - N/A   Clear
10:53 PM 44.1 °F 40.1 °F 17.1 °F 34% 30.34 in 10.0 mi SE 6.9 mph - N/A   Clear
11:53 PM 43.0 °F 39.5 °F 17.1 °F 35% 30.34 in 10.0 mi South 5.8 mph - N/A   Clear